Find OneWeb SL0050

NORAD ID: 45453 Int'l Des: 2020-020 Owner: ONEWEB Country: UK Constellation: oneweb operational
LEOCIRCULARPOLAR

Live Position

Loading 3D Globe...

About OneWeb SL0050

Description loading...

Upcoming Passes

Passes for default location (London). Set your location on the main map for personalized predictions.

Altitude History

Loading altitude history...

Two-Line Element Set

1 45453U 20020AF 26105.08978691 .00001597 00000-0 16289-3 0 9998
2 45453 88.9257 241.7814 0003727 158.3572 201.7815 14.90152308330989
Epoch: Apr 15, 2026 • Age: 9 hours

Current Status

Altitude 607.0 km
Velocity 7.56 km/s
Sub-Earth Point 65.75°N, 54.88°E
Launch Date Mar 21, 2020
Age 6 years
Type internet

Technical Details

Classification Payload
Mass 148.00 kg
Dry Mass 140.00 kg
Total Mass 148.00 kg
Length 1.30 m
Diameter 1.00 m
Span 5.00 m
Shape Trapezoid+2 pan
Manufacturer ONEWUS
Bus Type ARROW
Phase Status In Orbit
Owner/State ONEWEB/UK

Most Searched